Portada
METAR-TAF:

METAR-TAF

Aeroports :

Savoonga, Alaska, Estats Units d'Amèrica

latitud: 63-41N, longitud: 170-30W, altitud: 16 m

Observació

L'informe es va fer fa 19 hores i 55 minuts, a les 19:56 UTC
Vent 8 kt del Est/Sud-Est
Temperatura -4°C
Humitat 93%
Pressió 994 hPa
Visibilitat: 16.1 km
Cel cobert a una alçada de 5500 ft

METAR: PASA 121956Z AUTO 11008KT 10SM OVC055 M04/M05 A2934 RMK AO2 SLPNO T10391050 FZRANO

Hora: 06:51 (15:51 UTC)


TAF: manca

Observacions i pronòstics meteorològics de més de 4000 aeroports (METAR i TAF).

Les estacions disponibles són els punts grocs i vermells al mapa.

Posi el ratolí al punt desitjat per veure el nom de l'estació.

Feu clic per veure les observacions i els pronòstics meteorològics.

Per canviar el mapa: feu clic els botons verds amb una creu de color negre per apropar; al botó verd amb un guió per allunyar la imatge; o en les fletxes verdes per a mapes adjacents.


METAR-TAF: